Hourly Data Report for September 11, 2017

All times are specified in Local Standard Time (LST). Add 1 hour to adjust for Daylight Saving Time where and when it is observed.

GJOA HAVEN A
NUNAVUT

68°38'08.000" N
95°51'01.000" W
46.90 m
2302337
71597
YHK

Download Data

Hourly Data (September 2017)
Hourly Data Report for September 11, 2017
Temp Definition
°C
Dew Point Temp Definition
°C
Rel Hum Definition
%
Wind Dir Definition
10's deg

Wind Spd Definition
km/h
Visibility Definition
km
Stn Press Definition
kPa
Hmdx Definition


Wind Chill Definition


Weather Definition


TIME
00:00 Legend Double Dagger 3.6 1.3 85 23 26 16.1 100.24     LegendNANA
01:00 Legend Double Dagger 3.6 1.6 87 23 28 16.1 100.24     LegendNANA
02:00 Legend Double Dagger 3.4 1.3 86 24 22 16.1 100.23     LegendNANA
03:00 Legend Double Dagger 2.9 1.4 90 25 17 16.1 100.20     LegendNANA
04:00 Legend Double Dagger 1.9 0.6 91 25 15 16.1 100.17     LegendNANA
05:00 Legend Double Dagger 1.7 0.4 91 26 9 16.1 100.17     LegendNANA
06:00 Legend Double Dagger 1.5 0.3 92 28 8 16.1 100.22     LegendNANA
07:00 Legend Double Dagger 1.6 0.7 94 36 8 16.1 100.24     LegendNANA
08:00 Legend Double Dagger 0.6 0.5 99 1 18 0.2 100.25     Fog
09:00 Legend Double Dagger 1.1 1.1 100 1 22 0.4 100.25     Fog
10:00 Legend Double Dagger 1.9 1.9 100 2 21 0.2 100.26     Fog
11:00 Legend Double Dagger 2.4 2.4 100 2 18 0.8 100.27     Fog
12:00 Legend Double Dagger 2.3 2.3 100 1 22 0.6 100.28     Fog
13:00 Legend Double Dagger 2.7 2.7 100 2 30 16.1 100.30     LegendNANA
14:00 Legend Double Dagger 3.5 2.5 93 3 28 16.1 100.34     LegendNANA
15:00 Legend Double Dagger 4.2 2.7 90 4 26 16.1 100.39     LegendNANA
16:00 Legend Double Dagger 3.6 2.4 92 4 30 16.1 100.44     LegendNANA
17:00 Legend Double Dagger 3.1 2.1 93 4 30 16.1 100.47     LegendNANA
18:00 Legend Double Dagger 2.6 1.7 94 5 35 16.1 100.51     LegendNANA
19:00 Legend Double Dagger 2.2 1.1 92 5 30 16.1 100.53     LegendNANA
20:00 Legend Double Dagger 1.6 0.7 94 6 24 16.1 100.54     LegendNANA
21:00 Legend Double Dagger 0.8 0.1 95 5 26 16.1 100.57     LegendNANA
22:00 Legend Double Dagger 0.4 -0.6 93 6 21 16.1 100.61     LegendNANA
23:00 Legend Double Dagger 0.2 -1.4 89 6 22 16.1 100.65     LegendNANA

Notes on Data Quality.

Legend

  • E = Estimated
  • M = Missing
  • NA = Not Available
  • ‡ = Partner data that is not subject to review by the National Climate Archives
Date modified: